Temperature
26 25 24 23 22 21 21 20 20 20 19 19 19 19 19 19 19 19 19 19 19 19 18 18 18 19 18 18 18 18 18 18 18 18 18 18 18 19 19 19 18 18 18
26 25 24 23 22 22 21 21 20 20 20 20 19 19 19 19 19 19 19 19 19 18 18 19 18 19 18 18 18 18 18 18 18 18 18 18 18 19 19 19 18 18 18
27 25 24 24 23 22 21 21 21 20 20 20 20 19 19 19 19 19 19 19 19 19 19 18 18 18 18 18 18 18 18 18 18 18 18 18 18 19 19 19 19 19 18
27 26 25 24 23 22 21 21 21 21 20 20 20 19 19 19 19 19 19 19 19 19 18 18 18 18 18 18 18 18 18 18 18 18 18 18 18 18 18 18 19 19 18
28 26 25 24 24 23 22 21 21 21 20 20 20 20 19 19 19 19 19 19 19 19 19 18 18 18 18 18 18 18 18 18 18 18 18 18 18 18 18 18 18 18 18
28 27 26 25 24 23 22 21 21 21 21 20 20 20 20 19 19 19 19 19 19 19 19 18 18 18 18 18 18 18 18 18 18 18 18 18 18 18 18 18 18 18 18
29 27 26 25 24 23 23 22 21 21 21 20 20 20 20 20 19 19 19 19 19 19 19 18 18 18 18 18 18 18 18 18 18 18 18 18 18 18 18 18 18 18 18
29 28 27 25 24 24 23 22 21 21 21 20 20 20 20 20 19 19 19 19 19 19 19 19 19 18 18 18 18 18 18 18 18 18 18 18 18 18 18 18 18 18 18
29 28 27 25 24 24 23 22 22 21 21 21 20 20 20 20 19 19 19 19 19 19 19 19 18 18 18 18 18 18 18 18 18 18 18 18 18 18 18 18 18 17 17
29 28 27 26 25 24 23 22 22 21 21 21 20 20 20 20 20 19 19 19 19 19 19 19 18 18 18 18 18 18 18 17 18 17 17 17 17 17 17 17 17 17 17
29 28 27 26 25 24 23 23 22 21 21 20 20 20 20 20 20 20 19 19 19 19 19 18 18 18 18 18 18 18 18 17 17 17 17 17 17 17 17 17 17 17 17
28 27 26 26 25 24 23 23 22 21 21 20 20 20 20 19 19 19 19 19 19 19 19 19 18 18 18 18 18 18 17 17 17 17 17 17 17 17 17 17 17 17 17
27 26 25 24 24 24 23 23 22 21 20 20 20 19 19 19 19 19 19 19 19 19 19 18 18 18 18 18 18 18 17 17 17 17 17 17 16 16 16 16 16 16 16
26 25 24 23 23 23 23 22 22 21 20 20 20 19 19 19 19 19 19 19 19 19 18 18 18 18 18 18 18 17 17 17 17 17 16 16 16 16 16 16 16 16 16
25 24 23 22 22 22 22 21 21 21 20 20 20 19 19 19 19 18 18 18 18 18 18 18 18 18 17 17 17 17 17 17 16 16 16 16 16 16 16 16 16 15 15
24 23 22 22 21 21 21 21 21 21 20 20 20 19 19 19 18 18 18 18 18 18 18 18 18 17 17 17 17 17 17 17 16 16 16 16 16 16 16 16 15 15 15
23 22 22 21 21 20 20 20 20 20 20 20 19 19 19 19 18 18 18 18 18 17 17 17 17 17 17 17 17 17 17 16 16 16 16 15 15 15 15 15 15 15 15
22 21 21 21 20 20 20 20 20 19 19 19 19 19 19 18 18 18 18 18 18 17 17 17 17 17 16 16 16 16 16 16 16 15 15 15 15 15 15 15 15 15 15
21 20 20 20 20 19 19 19 19 19 19 19 19 19 18 18 18 18 18 17 17 17 17 16 16 16 16 16 16 16 16 15 15 15 15 15 15 15 15 14 14 14 14
20 20 19 19 19 19 19 19 18 18 18 18 18 18 18 17 17 17 17 17 17 16 16 16 16 16 16 16 16 15 15 15 15 14 14 14 14 14 14 14 14 14 14
19 19 19 19 18 18 18 18 18 18 18 18 17 17 17 17 17 17 17 17 16 16 16 16 15 15 15 15 15 15 15 15 14 14 14 14 14 14 14 14 14 14 13
18 18 18 18 17 17 17 17 17 17 17 17 17 17 17 17 16 16 16 16 16 16 15 15 15 15 15 15 15 15 15 14 14 14 14 14 14 14 13 13 13 13 13
18 17 17 17 17 16 16 16 16 16 16 16 16 16 16 16 16 16 16 15 15 15 15 15 14 14 14 14 14 14 14 14 14 13 13 13 13 13 13 13 13 12 12
17 17 17 16 16 16 16 16 16 16 16 16 16 15 15 15 15 15 15 15 15 15 15 14 14 14 14 14 14 13 13 13 13 13 13 13 13 13 12 12 12 12 12
17 16 16 16 16 15 15 16 16 15 15 15 15 15 15 14 15 14 14 15 15 14 14 14 14 14 14 14 13 13 13 13 13 13 13 12 12 12 11 12 11 11 11
16 16 15 15 15 15 15 15 15 15 15 15 14 14 14 14 14 14 14 14 14 14 14 14 14 14 14 13 13 13 13 13 12 12 12 12 11 11 11 11 11 11 11
Wind_Speed
16 15 15 14 14 13 11 9 8 7 5 5 5 4 3 3 3 4 6 6 4 4 3 1 3 2 1 1 1 1 1 2 2 1 2 2 3 4 3 3 2 3 4
17 16 15 15 15 14 12 11 9 9 7 5 4 4 4 3 3 3 5 6 5 5 4 2 2 2 2 2 1 1 1 2 2 1 1 1 1 3 3 3 4 4 3
18 17 16 15 15 15 14 12 10 10 8 7 5 4 3 2 3 4 5 5 5 5 3 3 2 1 2 2 2 2 2 2 2 2 2 1 2 1 2 3 3 3 3
17 18 17 16 16 15 14 12 10 10 9 8 7 6 5 5 5 4 4 5 5 5 5 3 3 1 1 1 3 3 2 3 3 2 3 2 1 1 1 2 2 3 3
16 17 18 17 16 16 15 13 11 10 10 8 8 6 6 5 4 5 5 5 5 5 5 4 3 3 2 2 2 1 2 2 3 3 2 2 3 4 3 2 2 2 2
16 15 15 15 15 16 15 15 13 11 11 10 8 7 6 6 5 6 6 6 5 4 5 5 4 3 2 2 2 2 2 2 3 3 3 3 2 2 2 3 3 3 2
13 14 14 14 15 15 15 15 15 13 12 11 9 8 7 6 5 5 6 5 5 5 5 5 4 3 3 3 2 2 2 1 3 3 3 3 4 3 2 2 2 2 2
12 13 14 13 12 14 15 15 15 13 13 12 10 8 7 7 6 6 5 5 4 4 5 5 5 4 4 3 2 2 3 2 3 4 3 3 4 3 2 2 2 3 3
10 11 12 13 12 12 12 13 14 13 13 13 10 8 8 7 6 6 6 4 4 4 5 5 5 4 4 3 3 2 3 2 3 3 3 3 3 3 2 2 2 2 3
6 9 11 12 12 13 12 12 12 14 13 11 11 10 9 8 6 6 6 4 4 3 4 5 5 5 4 4 3 2 2 2 2 2 2 2 3 3 2 2 2 2 3
6 6 7 10 12 12 12 12 12 12 12 11 10 8 9 9 8 6 5 5 4 4 4 4 4 4 4 4 3 3 3 3 3 3 2 2 3 3 3 2 2 2 2
3 3 5 6 8 10 11 11 10 11 11 11 9 9 8 9 9 8 6 5 5 5 4 4 4 4 4 4 4 4 3 3 3 3 2 3 3 3 3 3 3 3 2
3 3 4 3 4 6 7 9 10 11 11 11 10 10 9 9 8 7 7 6 6 5 5 5 5 4 4 4 4 4 4 4 3 3 3 3 3 3 3 3 4 3 4
2 3 4 3 2 3 3 6 8 8 10 10 11 10 10 9 8 8 8 7 7 6 6 5 5 5 4 4 4 4 4 4 3 3 3 3 3 3 4 4 4 4 4
2 2 3 3 2 2 2 4 6 7 8 9 10 10 9 8 7 7 7 7 7 8 6 6 5 5 5 5 4 4 5 4 4 3 2 3 2 1 2 3 3 3 3
1 1 2 2 2 3 3 3 4 5 6 8 8 8 9 8 8 8 8 7 7 6 6 6 6 6 6 4 4 4 4 4 4 3 3 3 3 2 3 3 3 3 4
2 2 2 2 2 2 2 2 2 4 5 5 6 7 7 8 7 8 7 7 6 5 5 5 5 5 4 4 4 5 4 4 4 4 3 4 3 1 1 2 2 3 4
1 0 2 3 3 3 2 2 2 3 4 5 5 5 6 6 6 6 6 5 5 5 4 4 4 3 4 4 4 4 5 5 4 3 3 3 2 2 1 2 1 2 2
3 2 1 1 2 2 1 1 3 4 4 4 4 4 5 5 5 6 6 5 4 4 4 4 4 3 3 3 3 3 4 4 3 2 1 2 2 0 0 1 1 1 1
2 1 1 0 1 1 1 1 2 2 3 3 3 2 3 3 4 4 4 4 4 4 4 3 3 3 3 3 3 3 3 3 2 2 2 1 2 2 1 1 1 1 1
2 2 1 1 1 1 1 1 1 2 2 2 3 3 3 3 4 3 3 4 4 4 4 3 3 3 3 3 3 3 2 3 2 2 2 1 3 3 2 1 1 1 2
2 1 2 3 2 1 2 2 1 1 2 2 3 3 3 3 4 4 4 4 5 4 4 3 3 2 3 4 3 3 3 3 2 1 0 1 3 2 2 1 1 1 3
1 0 2 3 2 1 1 2 1 1 2 2 2 2 2 2 2 4 4 4 4 4 4 4 3 2 3 4 5 3 2 2 1 0 2 3 2 1 1 2 2 2 2
0 1 2 3 2 2 1 2 1 1 2 2 2 2 2 2 2 2 3 3 3 3 3 3 3 3 3 3 2 2 2 1 1 1 2 2 1 1 0 0 1 2 1
1 2 2 2 2 2 2 2 2 2 2 2 2 2 3 3 2 2 1 2 2 3 3 3 2 2 2 1 2 2 2 1 1 1 1 1 1 1 1 1 0 1 0
1 2 2 2 2 2 2 2 2 2 3 3 3 3 3 3 3 3 3 5 3 5 4 3 3 2 4 5 5 4 3 3 2 2 1 1 1 1 1 1 1 1 1
Wind_Direction
172 170 167 165 160 157 157 161 163 158 161 163 169 171 169 169 157 149 144 152 165 172 188 189 137 174 178 160 142 128 220 245 216 235 264 237 224 224 216 221 231 211 208
172 173 172 171 168 164 164 165 167 167 173 174 179 174 174 171 167 155 147 164 176 176 182 186 183 186 183 175 181 183 227 254 227 209 240 267 252 253 218 202 209 216 214
176 175 177 177 173 171 171 174 173 171 178 174 175 178 164 174 165 159 161 171 178 178 197 172 190 200 198 180 196 203 218 253 267 230 220 230 239 256 241 222 208 196 218
177 176 179 181 180 177 173 169 170 172 177 176 180 179 171 177 183 170 165 171 184 185 185 185 184 223 231 189 216 201 231 239 263 251 233 232 232 220 266 262 215 201 215
179 178 182 183 182 179 175 171 169 175 177 180 185 185 186 187 177 167 163 169 179 184 183 182 183 202 219 251 256 271 259 249 262 267 261 250 237 227 228 250 254 247 232
176 174 178 177 181 179 175 173 172 178 179 182 186 187 193 191 187 180 171 179 178 183 185 183 187 195 206 228 235 250 247 264 290 292 289 272 261 247 232 240 243 243 247
166 168 173 178 181 178 177 176 175 180 182 184 189 189 191 195 196 191 186 190 182 183 185 185 175 186 206 218 223 233 244 253 278 277 282 289 283 278 271 264 256 257 260
168 171 175 173 178 181 179 176 176 179 182 186 192 192 189 197 203 205 200 194 195 183 174 175 173 184 200 212 208 229 228 226 241 253 267 276 282 287 268 255 258 267 267
170 172 170 170 176 184 183 181 175 178 183 187 188 189 192 201 204 196 204 203 199 190 171 171 175 185 198 210 211 222 233 223 234 239 246 258 268 269 265 251 243 251 261
161 165 169 173 175 184 187 186 178 181 183 185 191 193 193 197 201 202 199 199 193 190 174 175 180 186 192 201 219 221 227 238 253 251 263 274 276 280 263 248 239 246 256
166 157 161 173 175 180 187 183 179 178 180 185 188 189 187 190 195 198 197 192 201 194 189 186 187 191 191 191 208 223 212 228 249 257 256 276 301 302 303 295 270 254 241
113 129 148 162 171 177 183 180 178 180 180 182 182 187 186 186 191 191 194 190 194 203 195 189 192 201 190 192 207 221 222 217 230 244 250 259 265 275 297 297 284 271 249
105 118 124 152 172 178 179 181 183 184 183 182 184 186 190 189 191 192 190 191 192 201 199 192 202 207 203 204 216 222 228 231 229 236 251 264 273 273 279 283 281 279 274
96 116 128 135 148 157 168 175 182 183 184 185 186 188 190 191 194 194 192 191 194 200 201 199 205 210 207 212 221 229 239 243 240 238 245 257 259 270 278 273 269 270 277
79 90 120 126 143 146 182 194 179 182 182 183 185 185 186 186 192 195 193 196 199 205 198 202 207 209 215 225 220 225 235 236 243 243 243 258 266 283 278 279 296 290 280
196 162 135 137 160 166 196 194 185 187 181 183 186 183 184 188 194 196 195 195 200 205 202 206 207 216 227 209 212 226 242 237 240 245 241 241 227 221 223 251 281 283 273
218 207 194 173 193 189 196 195 199 189 185 182 184 182 187 194 199 203 198 198 199 203 207 215 213 216 211 211 218 224 232 238 238 237 248 267 265 226 233 259 269 286 271
7 322 200 182 192 195 181 174 201 203 178 176 181 176 184 193 195 197 197 197 192 200 209 216 217 216 222 216 223 231 235 242 238 231 237 245 257 276 266 264 283 295 300
2 4 320 213 190 183 172 172 210 189 180 179 175 178 185 189 191 194 192 184 181 191 202 209 209 209 209 205 212 223 243 244 238 231 239 222 201 251 346 234 245 259 264
339 331 307 355 119 147 183 189 199 169 170 170 157 152 164 183 191 188 185 180 187 195 200 196 199 193 175 177 193 213 247 253 243 216 204 169 154 153 154 224 241 264 292
331 342 352 60 66 88 128 148 160 174 159 143 145 154 168 189 188 186 184 182 194 195 195 188 186 162 158 166 185 202 241 255 249 233 218 190 157 146 151 182 227 250 287
357 356 58 75 84 86 136 140 121 126 129 143 151 157 180 207 190 180 191 195 196 193 186 185 187 172 160 160 176 196 227 260 254 256 182 145 169 169 180 182 233 290 295
32 244 133 110 107 102 142 145 149 154 142 142 152 162 181 190 183 187 193 192 190 193 191 186 191 184 169 157 149 176 221 258 276 34 101 120 139 160 165 191 241 270 268
307 137 130 131 120 121 114 131 134 144 147 156 158 167 180 183 169 182 194 185 180 183 183 191 193 188 178 163 156 168 158 152 143 113 117 120 153 193 118 197 243 251 296
110 119 125 133 145 148 133 143 141 155 156 159 169 186 190 176 140 155 168 169 151 171 183 199 201 186 170 180 149 153 161 169 175 160 156 141 130 153 151 145 199 268 303
119 129 148 162 165 163 150 146 151 164 168 188 200 200 190 170 171 166 134 68 90 114 123 135 143 121 138 140 127 122 123 139 146 141 185 193 191 185 184 187 226 255 267
Height
1505 1509 1513 1516 1518 1520 1523 1525 1528 1530 1532 1534 1535 1537 1538 1540 1541 1542 1543 1544 1545 1547 1548 1550 1551 1552 1552 1553 1554 1554 1554 1555 1556 1556 1556 1557 1557 1557 1557 1557 1557 1558 1558
1501 1506 1510 1513 1516 1518 1520 1523 1525 1528 1530 1532 1534 1536 1538 1539 1541 1542 1542 1544 1545 1546 1548 1549 1550 1551 1552 1552 1553 1553 1554 1554 1555 1556 1556 1556 1556 1555 1555 1555 1555 1556 1556
1496 1501 1506 1510 1513 1515 1518 1520 1523 1526 1528 1531 1533 1536 1537 1539 1541 1541 1542 1543 1544 1545 1546 1548 1549 1550 1551 1551 1552 1552 1553 1553 1554 1554 1555 1555 1554 1554 1555 1554 1554 1554 1554
1492 1497 1502 1506 1509 1512 1515 1518 1520 1523 1526 1529 1531 1533 1535 1537 1539 1540 1541 1542 1543 1544 1545 1547 1548 1549 1550 1550 1550 1551 1551 1552 1552 1552 1553 1553 1553 1553 1553 1553 1553 1552 1552
1487 1492 1497 1501 1506 1510 1512 1515 1518 1520 1523 1526 1529 1531 1533 1536 1538 1539 1540 1541 1542 1543 1544 1545 1546 1547 1548 1548 1549 1549 1550 1550 1551 1551 1551 1551 1551 1551 1552 1551 1551 1551 1551
1484 1489 1494 1498 1502 1506 1510 1512 1514 1517 1520 1523 1525 1528 1531 1533 1535 1537 1538 1539 1541 1541 1542 1543 1544 1545 1546 1547 1547 1547 1548 1548 1548 1548 1548 1549 1549 1549 1549 1549 1549 1548 1548
1481 1486 1490 1494 1499 1502 1506 1508 1511 1513 1516 1519 1522 1525 1528 1530 1533 1535 1536 1538 1539 1540 1541 1542 1543 1543 1544 1545 1545 1545 1546 1545 1546 1546 1546 1546 1547 1547 1547 1547 1546 1546 1546
1478 1482 1487 1491 1495 1499 1502 1505 1507 1510 1513 1516 1519 1522 1525 1527 1530 1532 1534 1536 1537 1538 1539 1540 1541 1542 1542 1543 1543 1544 1544 1544 1544 1544 1544 1544 1544 1544 1545 1545 1545 1544 1543
1475 1479 1483 1487 1492 1496 1499 1502 1504 1507 1510 1513 1516 1519 1522 1524 1527 1529 1532 1533 1535 1536 1537 1538 1539 1540 1540 1541 1541 1541 1541 1542 1542 1542 1542 1542 1542 1542 1542 1542 1542 1542 1541
1473 1477 1481 1485 1488 1493 1496 1500 1503 1505 1507 1510 1513 1516 1518 1521 1524 1526 1528 1530 1532 1534 1535 1536 1536 1537 1538 1538 1538 1539 1539 1539 1539 1540 1540 1540 1540 1540 1540 1539 1539 1539 1539
1471 1475 1479 1483 1487 1490 1494 1498 1500 1502 1505 1507 1510 1514 1516 1518 1521 1523 1525 1527 1529 1531 1532 1533 1534 1534 1535 1535 1536 1536 1536 1536 1537 1537 1537 1537 1537 1537 1537 1537 1536 1536 1536
1471 1474 1477 1481 1485 1488 1491 1494 1497 1499 1502 1505 1507 1510 1513 1515 1518 1520 1522 1524 1526 1527 1529 1530 1531 1532 1532 1532 1533 1533 1534 1534 1534 1534 1534 1533 1534 1534 1534 1533 1533 1533 1533
1472 1475 1477 1480 1483 1486 1488 1491 1494 1496 1499 1502 1504 1507 1510 1512 1514 1516 1518 1520 1522 1524 1526 1527 1528 1529 1529 1530 1530 1530 1530 1531 1530 1530 1530 1530 1530 1530 1530 1530 1530 1529 1530
1473 1474 1477 1480 1482 1484 1486 1488 1491 1494 1496 1498 1501 1503 1505 1508 1511 1513 1515 1517 1519 1520 1522 1523 1524 1525 1526 1526 1527 1527 1527 1528 1528 1527 1527 1527 1527 1526 1526 1526 1526 1526 1525
1473 1475 1476 1478 1480 1481 1483 1485 1487 1490 1492 1494 1497 1499 1502 1505 1507 1509 1511 1513 1515 1517 1518 1519 1520 1522 1522 1523 1523 1523 1524 1524 1524 1524 1524 1524 1523 1523 1523 1522 1521 1521 1521
1474 1475 1476 1478 1479 1480 1482 1483 1484 1487 1488 1490 1493 1496 1499 1501 1503 1505 1507 1509 1511 1513 1514 1515 1516 1517 1519 1519 1520 1520 1520 1520 1520 1520 1520 1520 1519 1519 1519 1518 1518 1517 1517
1473 1475 1476 1476 1478 1479 1480 1481 1482 1484 1485 1487 1489 1491 1495 1497 1499 1502 1503 1505 1507 1509 1510 1511 1512 1513 1514 1515 1515 1515 1516 1516 1516 1516 1516 1516 1516 1516 1515 1514 1514 1513 1513
1471 1472 1473 1474 1476 1477 1478 1479 1480 1481 1483 1484 1486 1489 1491 1493 1495 1497 1499 1500 1502 1504 1505 1506 1508 1508 1509 1510 1511 1511 1511 1512 1512 1512 1512 1513 1512 1512 1511 1510 1510 1509 1509
1470 1470 1471 1473 1474 1475 1476 1476 1477 1478 1480 1482 1483 1485 1487 1490 1491 1493 1494 1496 1498 1499 1501 1502 1503 1503 1504 1505 1506 1507 1507 1508 1508 1508 1509 1509 1508 1508 1507 1507 1506 1505 1505
1469 1469 1469 1470 1471 1472 1474 1474 1475 1476 1478 1479 1481 1482 1484 1486 1488 1489 1490 1492 1494 1495 1497 1498 1499 1499 1500 1501 1502 1502 1503 1504 1504 1505 1505 1505 1504 1504 1504 1503 1503 1502 1502
1468 1468 1468 1468 1469 1470 1471 1472 1473 1474 1475 1477 1478 1480 1481 1482 1484 1486 1487 1488 1490 1491 1493 1494 1495 1495 1496 1497 1498 1498 1499 1500 1500 1501 1501 1501 1501 1501 1501 1501 1500 1500 1500
1466 1466 1466 1466 1467 1468 1469 1470 1471 1472 1473 1474 1476 1477 1478 1479 1481 1482 1484 1485 1487 1488 1489 1490 1491 1492 1492 1493 1494 1495 1496 1497 1497 1497 1498 1498 1498 1498 1498 1498 1498 1498 1498
1464 1464 1464 1464 1465 1467 1468 1468 1469 1471 1472 1472 1473 1474 1475 1476 1477 1479 1481 1482 1484 1485 1486 1487 1488 1489 1489 1490 1491 1492 1493 1494 1495 1495 1495 1495 1495 1494 1493 1494 1495 1495 1495
1463 1462 1462 1463 1464 1465 1467 1467 1468 1469 1470 1471 1472 1472 1473 1474 1475 1477 1478 1479 1481 1482 1484 1485 1485 1486 1487 1488 1488 1489 1490 1492 1493 1493 1493 1492 1492 1492 1492 1492 1493 1493 1493
1461 1461 1461 1462 1463 1464 1465 1465 1466 1466 1468 1469 1470 1471 1472 1472 1473 1474 1475 1476 1478 1479 1481 1482 1483 1483 1484 1485 1486 1487 1488 1489 1490 1491 1491 1490 1491 1491 1491 1491 1491 1491 1492
1460 1460 1461 1461 1462 1463 1463 1464 1464 1465 1466 1467 1468 1470 1471 1471 1472 1473 1474 1475 1476 1478 1479 1480 1481 1481 1483 1484 1485 1486 1487 1487 1488 1488 1488 1488 1489 1489 1489 1489 1489 1490 1490